Regional Weather Roundup
Issued by NWS

Home | Current Version | Previous Version | Graphics & Text | Print | Product List | Glossary On
Versions: 1 2 3 4 5 6 7 8 9 10 11 12 13 14 15 16 17 18 19 20 21 22 23 24 25 26 27 28 29 30 31 32 33 34 35 36 37 38 39 40 41 42 43 44 45 46 47 48 49 50
000
ASUS43 KOAX 231610
RWRNE

WEATHER ROUNDUP FOR NEBRASKA
NATIONAL WEATHER SERVICE OMAHA NE
1100 AM CDT SAT SEP 23 2017

NOTES: SATELLITE DATA IS BEING USED TO AUGMENT CLOUD COVER ABOVE
       12000 FEET.
       "FAIR" INDICATES FEW OR NO CLOUDS BELOW 12,000 FEET WITH NO
       SIGNIFICANT WEATHER AND/OR OBSTRUCTIONS TO VISIBILITY.


NEZ001>004-019>022-054>056-231700-
NEBRASKA PANHANDLE

CITY           SKY/WX    TMP DP  RH WIND       PRES   REMARKS
SCOTTSBLUFF    CLOUDY    45  43  93 N7        30.02F FOG
ALLIANCE       CLOUDY    44  43  96 NE13      30.00R FOG
CHADRON        CLOUDY    45  42  89 NE10      30.04S
GORDON         CLOUDY    44  43  96 NE10      30.02F FOG
KIMBALL        CLOUDY    42  42 100 N10       30.00F FOG
SIDNEY         CLOUDY    45  44  97 N9        30.00R FOG
$$

NEZ057>060-069>072-079>082-231700-
SOUTHWEST NEBRASKA

CITY           SKY/WX    TMP DP  RH WIND       PRES   REMARKS
NORTH PLATTE   CLOUDY    53  52  96 NE10      29.95S FOG
IMPERIAL       CLOUDY    52  47  83 N13       29.95R
LEXINGTON      CLOUDY    67  60  75 NE8       29.92S
MCCOOK         CLOUDY    76  65  68 S15       29.89R
OGALLALA       CLOUDY    51  49  95 NE12      29.95F FOG
$$

NEZ005>010-023>029-035>040-094-231700-
NORTH CENTRAL NEBRASKA

CITY           SKY/WX    TMP DP  RH WIND       PRES   REMARKS
VALENTINE      CLOUDY    50  48  93 N9        30.01F FOG
AINSWORTH      DRIZZLE   49  49 100 N10       30.01F
BROKEN BOW     CLOUDY    55  51  86 N10       29.95S
O`NEILL        CLOUDY    54  54 100 N8        29.98F FOG
ORD            CLOUDY    65  55  70 N7        29.93F
THEDFORD       DRIZZLE   49  49  97 NE10      30.00R
$$

NEZ041-046>049-061>064-073>077-083>087-231700-
SOUTH CENTRAL NEBRASKA

CITY           SKY/WX    TMP DP  RH WIND       PRES   REMARKS
GRAND ISLAND   SUNNY     79  67  66 S9        29.92F
AURORA         CLOUDY    79  66  66 S16       29.92F
HASTINGS       SUNNY     77  64  64 S10       29.93F
HEBRON         SUNNY     84  66  53 S15G22    29.94R
HOLDREGE       SUNNY     78  63  59 S14       29.91S
KEARNEY        SUNNY     80  66  62 S16       29.91F
YORK           PTSUNNY   77  66  69 S12G21    29.94S
$$

NEZ011>018-030>034-042>045-231700-
NORTHEAST NEBRASKA

CITY           SKY/WX    TMP DP  RH WIND       PRES   REMARKS
NORFOLK        SUNNY     74  65  73 SE6       29.92F
ALBION         CLOUDY    71  65  79 SE5       29.94F
BLAIR          CLOUDY    81  68  65 S13       29.97S
COLUMBUS       MOSUNNY   79  68  69 SE8       29.94F
FREMONT        MOSUNNY   81  67  63 S7        29.96S
TEKAMAH        CLOUDY    81  67  62 S8        29.96R
WAYNE          MOSUNNY   72  69  90 SE7       29.95S
$$

NEZ050>053-065>068-078-088>093-231700-
SOUTHEAST NEBRASKA

CITY           SKY/WX    TMP DP  RH WIND       PRES   REMARKS
LINCOLN        SUNNY     85  67  54 S15       29.94F
OMAHA EPPLEY   CLOUDY    83  67  58 S15       29.97S
BEATRICE       SUNNY     84  67  57 S12G18    29.96F
FALLS CITY     SUNNY     83  66  56 S10       30.00S
NEBRASKA CITY  SUNNY     82  69  66 S13       29.99F
PLATTSMOUTH    SUNNY     82  68  63 S10G20    29.98F
$$

NEZ044-045-051>053-067-231700-
OMAHA AREA

CITY           SKY/WX    TMP DP  RH WIND       PRES   REMARKS
OMAHA EPPLEY   CLOUDY    83  67  58 S15       29.97S
BLAIR          CLOUDY    81  68  65 S13       29.97S
FREMONT        MOSUNNY   81  67  63 S7        29.96S
MILLARD        SUNNY     84  69  60 S13       29.96S
OFFUTT AFB     MOSUNNY   82  67  60 SE13      29.97S
PLATTSMOUTH    SUNNY     82  68  63 S10G20    29.98F
WAHOO          FAIR      84  66  53 S10       29.95S
$$




USA.gov is the U.S. government's official web portal to all federal, state and local government web resources and services.